Weather History for Northeast Philadelphia, PA

Change the Weather History Date:

Thursday, October 20, 2011

  Actual Average Record
Temperature  
Mean Temperature 62 °F -  
Max Temperature 70 °F 61 °F 73 °F (2007)
Min Temperature 55 °F 42 °F 36 °F (2008)
Degree Days  
Heating Degree Days 2    
Growing Degree Days 12 (Base 50)    
Moisture  
Dew Point 54 °F    
Average Humidity 73    
Maximum Humidity 100    
Minimum Humidity 46    
Precipitation  
Precipitation 0.02 in - - ()
Sea Level Pressure  
Sea Level Pressure 29.46 in    
Wind  
Wind Speed 10 mph (SSW)    
Max Wind Speed 21 mph    
Max Gust Speed 33 mph    
Visibility 9 miles    
Events Rain    
Averages and records for this station are not official NWS values.
T = Trace of Precipitation, MM = Missing Value Source: NWS Daily Summary

Daily Weather History Graph

Daily Weather History Graph

Search for Another Location

Airport:

Trip Planner

Search our weather history database for the weather conditions in past years. The results will help you decide how hot, cold, wet, or windy it might be!

Date:

Astronomy

Oct. 20, 2011 Rise Set
Actual Time 7:15 AM EDT 6:13 PM EDT
Civil Twilight 6:48 AM EDT 6:40 PM EDT
Nautical Twilight 6:16 AM EDT 7:12 PM EDT
Astronomical Twilight 5:45 AM EDT 7:43 PM EDT
Moon No Moon Rise 2:21 PM EDT (10/20)
Length of Visible Light 11h 52m
Length of Day
10h 57m
Last Quarter, 44% of the Moon is Illuminated
Oct 20
Last Quarter
Oct 26
New
Nov 2
First Quarter
Nov 10
Full
Nov 18
Last Quarter

Hourly Weather History & Observations

Time (EDT) Temp. Dew Point Humidity Pressure Visibility Wind Dir Wind Speed Gust Speed Precip Events Conditions
12:54 AM 69.1 °F 68.0 °F 96% 29.33 in 6.0 mi ESE 4.6 mph - 0.00 in   Overcast
1:03 AM 69.8 °F 68.0 °F 94% 29.33 in 6.0 mi SE 4.6 mph - N/A   Overcast
1:17 AM 69.8 °F 68.0 °F 94% 29.32 in 7.0 mi ESE 5.8 mph - N/A   Overcast
1:45 AM 69.8 °F 68.0 °F 94% 29.33 in 6.0 mi SE 4.6 mph - N/A   Overcast
1:54 AM 70.0 °F 69.1 °F 97% 29.33 in 7.0 mi SE 5.8 mph - N/A   Overcast
2:13 AM 69.8 °F 69.8 °F 100% 29.32 in 8.0 mi SE 6.9 mph - 0.01 in Rain Light Rain
2:54 AM 70.0 °F 69.1 °F 97% 29.32 in 8.0 mi SSE 4.6 mph - 0.01 in Rain Light Rain
3:15 AM 69.8 °F 69.8 °F 100% 29.31 in 10.0 mi SSE 5.8 mph 17.3 mph 0.01 in Rain Light Rain
3:54 AM 70.0 °F 68.0 °F 93% 29.32 in 10.0 mi SSE 9.2 mph - 0.01 in   Overcast
4:03 AM 69.8 °F 66.2 °F 88% 29.32 in 10.0 mi SSE 8.1 mph - N/A   Overcast
4:17 AM 69.8 °F 66.2 °F 88% 29.32 in 10.0 mi Variable 5.8 mph - N/A   Overcast
4:54 AM 68.0 °F 66.0 °F 93% 29.32 in 10.0 mi South 8.1 mph - N/A   Overcast
5:03 AM 68.0 °F 64.4 °F 88% 29.33 in 10.0 mi SSW 8.1 mph 17.3 mph N/A   Mostly Cloudy
5:54 AM 66.9 °F 62.1 °F 84% 29.34 in 10.0 mi Variable 5.8 mph - N/A   Mostly Cloudy
6:18 AM 66.2 °F 60.8 °F 83% 29.35 in 10.0 mi SSW 16.1 mph 26.5 mph N/A   Mostly Cloudy
6:26 AM 66.2 °F 59.0 °F 78% 29.35 in 10.0 mi SSW 13.8 mph 25.3 mph N/A   Mostly Cloudy
6:54 AM 64.4 °F 55.4 °F 73% 29.37 in 10.0 mi SSW 19.6 mph 29.9 mph N/A   Clear
7:40 AM 62.6 °F 53.6 °F 72% 29.40 in 10.0 mi SSW 15.0 mph 25.3 mph N/A   Mostly Cloudy
7:54 AM 62.1 °F 54.0 °F 75% 29.41 in 10.0 mi SSW 12.7 mph 23.0 mph N/A   Mostly Cloudy
8:02 AM 62.6 °F 53.6 °F 72% 29.41 in 10.0 mi SSW 13.8 mph 20.7 mph N/A   Overcast
8:54 AM 60.1 °F 51.1 °F 72% 29.45 in 10.0 mi SSW 18.4 mph 28.8 mph N/A   Overcast
9:44 AM 60.8 °F 50.0 °F 68% 29.47 in 10.0 mi SSW 19.6 mph 28.8 mph N/A   Overcast
9:54 AM 60.1 °F 50.0 °F 69% 29.47 in 10.0 mi SSW 18.4 mph 25.3 mph N/A   Overcast
10:54 AM 61.0 °F 46.9 °F 60% 29.50 in 10.0 mi SW 20.7 mph 32.2 mph N/A   Mostly Cloudy
11:54 AM 62.1 °F 44.1 °F 52% 29.52 in 10.0 mi SW 18.4 mph 29.9 mph N/A   Mostly Cloudy
12:54 PM 59.0 °F 42.1 °F 53% 29.52 in 10.0 mi SW 18.4 mph 32.2 mph N/A   Overcast
1:54 PM 61.0 °F 42.1 °F 50% 29.52 in 10.0 mi SW 17.3 mph 23.0 mph N/A   Mostly Cloudy
2:54 PM 62.1 °F 41.0 °F 46% 29.53 in 10.0 mi SW 16.1 mph 28.8 mph N/A   Mostly Cloudy
3:54 PM 60.1 °F 39.9 °F 47% 29.57 in 10.0 mi SW 17.3 mph 32.2 mph N/A   Overcast
4:54 PM 59.0 °F 39.0 °F 48% 29.59 in 10.0 mi SW 18.4 mph 33.4 mph N/A   Mostly Cloudy
5:54 PM 59.0 °F 39.0 °F 48% 29.62 in 10.0 mi SW 20.7 mph 28.8 mph N/A   Overcast
6:54 PM 57.9 °F 39.0 °F 49% 29.66 in 10.0 mi SW 12.7 mph 27.6 mph N/A   Clear
7:54 PM 57.0 °F 39.0 °F 51% 29.68 in 10.0 mi SW 11.5 mph 19.6 mph N/A   Clear
8:54 PM 55.9 °F 39.9 °F 55% 29.70 in 10.0 mi WSW 16.1 mph 21.9 mph N/A   Clear
9:54 PM 57.0 °F 39.9 °F 53% 29.72 in 10.0 mi SW 15.0 mph 21.9 mph N/A   Overcast
10:54 PM 55.9 °F 41.0 °F 57% 29.74 in 10.0 mi SW 11.5 mph - N/A   Mostly Cloudy
11:54 PM 55.9 °F 39.9 °F 55% 29.75 in 10.0 mi WSW 9.2 mph 19.6 mph N/A   Partly Cloudy